Left ArrowRight Arrow

41.86663, -103.66717

Hourly Observations for June 15, 2024

Temp ( °F °C ) Dew Point ( °F °C ) Humidity (%) Winds ( mph kmh ) Pressure ( in mb ) Visibility ( mi km ) Precip ( " mm )
12:53 am 00:53 Mostly Cloudy with Light Rain 63 17.2 60 15.6 90 90 E 7 11 29.78 1009 10 16 0.01 0.13
1:53 am 01:53 Mostly Clear 63 17.2 59 15 87 87 NNE 3 6 29.77 1008 10 16 0.01 0.13
2:53 am 02:53 Clear 62 16.7 59 15 90 90 NW 5 7 29.74 1007 10 16 0.00 0.00
3:53 am 03:53 Clear 63 17.2 59 15 87 87 NNE 5 7 29.74 1007 10 16 0.00 0.00
4:53 am 04:53 Clear 61 16.1 59 15 93 93 Calm 29.75 1008 10 16 0.00 0.00
5:53 am 05:53 Sunny 61 16.1 59 15 93 93 ENE 5 7 29.77 1008 10 16 0.00 0.00
6:53 am 06:53 Sunny with Mist and Fog 62 16.7 61 16.1 96 96 E 5 7 29.76 1008 6 10 0.00 0.00
7:37 am 07:37 Mostly Sunny 66 18.9 63 17.2 90 90 Calm 29.70 1006 8 13 0.00 0.00
7:53 am 07:53 Mostly Sunny 67 19.4 62 16.7 84 84 E 6 9 29.75 1008 10 16 0.00 0.00
8:53 am 08:53 Sunny 72 22.2 61 16.1 68 68 Calm 29.74 1007 10 16 0.00 0.00
9:53 am 09:53 Sunny 78 25.6 56 13.3 47 47 Calm 29.70 1006 10 16 0.00 0.00
10:53 am 10:53 Sunny 84 28.9 54 12.2 36 36 Calm 29.67 1005 10 16 0.00 0.00
11:53 am 11:53 Sunny 89 31.7 49 9.4 25 25 WSW 8 13 29.64 1004 10 16 0.00 0.00
12:53 pm 12:53 Sunny 94 34.4 47 8.3 20 20 SW 6 9 29.61 1003 10 16 0.00 0.00
1:53 pm 13:53 Sunny 95 35 48 8.9 20 20 VRB 3 6 29.58 1002 10 16 0.00 0.00
2:48 pm 14:48 Partly Cloudy with Nearby Thunderstorms 93 34 41 5 16 16 undefined N/A 29.35 994 10 16 0.00 0.00
2:53 pm 14:53 Partly Cloudy with Nearby Thunderstorms 94 34.4 41 5 16 16 Calm 29.55 1001 10 16 0.00 0.00
3:04 pm 15:04 Mostly Sunny 95 35 44 6.7 17 17 ESE 7 11 29.33 993 10 16 0.00 0.00
3:53 pm 15:53 Sunny 90 32.2 49 9.4 25 25 S 15 24 29.56 1001 10 16 0.00 0.00
4:42 pm 16:42 Partly Cloudy with Nearby Thunderstorms 86 30 48 8.9 27 27 S 15 24 29.42 996 10 16 0.01 0.13
4:53 pm 16:53 Sunny 89 31.7 46 7.8 23 23 SSE 13 20 29.58 1002 10 16 0.01 0.13
5:53 pm 17:53 Sunny 86 30 46 7.8 25 25 S 15 24 29.55 1001 10 16 0.00 0.00
6:27 pm 18:27 Partly Cloudy 86 30 44 6.7 23 23 W 16 26 29.42 996 10 16 0.00 0.00
6:39 pm 18:39 Partly Cloudy 85 29.4 44 6.7 24 24 W 10 17 29.43 997 10 16 0.00 0.00
6:53 pm 18:53 Sunny 86 30 43 6.1 22 22 SW 5 7 29.58 1002 10 16 0.00 0.00
7:53 pm 19:53 Sunny 81 27.2 46 7.8 29 29 S 13 20 29.56 1001 10 16 0.00 0.00
8:53 pm 20:53 Clear 76 24.4 47 8.3 36 36 S 8 13 29.56 1001 10 16 0.00 0.00
9:53 pm 21:53 Clear 74 23.3 46 7.8 37 37 WSW 5 7 29.55 1001 10 16 0.00 0.00
10:53 pm 22:53 Clear 75 23.9 45 7.2 34 34 VRB 3 6 29.55 1001 10 16 0.00 0.00
11:53 pm 23:53 Clear 75 23.9 45 7.2 34 34 SE 3 6 29.56 1001 10 16 0.00 0.00

Powered by Vaisala Xweather